Torna al catalogo

ITALSAT 1

AttivoComunicazioniGEO
NORAD 21055·PAYLOAD·🇮🇹 Italy

Lanciato Jan 15, 1991 da Guiana Space Centre

Loading…

TLE

AggiornatoSource: Space-Track

Epoca: Sep 13, 2026, 15:05 UTC

1 21055U 91003A   26256.62892209 -.00000375  00000-0  00000-0 0  9991
2 21055  14.5285 350.8147 0009314  57.7283 291.8475  0.99966485117963

Traccia ITALSAT 1 in tempo reale con AllMySat

Download on the App Store